Regional Weather Roundup
Issued by NWS

Home | Current Version | Previous Version | Text Only | Print | Product List | Glossary On
Versions: 1 2 3 4 5 6 7 8 9 10 11 12 13 14 15 16 17 18 19 20 21 22 23 24 25 26 27 28 29 30 31 32 33 34 35 36 37 38 39 40 41 42 43 44 45 46 47 48 49 50
000
ASUS45 KREV 300810
RWRNV
NEVADA REGIONAL WEATHER ROUNDUP
NATIONAL WEATHER SERVICE RENO NV
100 AM PDT SAT AUG 30 2014

NOTE: "FAIR" INDICATES FEW OR NO CLOUDS BELOW 12,000 FEET WITH NO
SIGNIFICANT WEATHER AND/OR OBSTRUCTIONS TO VISIBILITY.

NVZ001-003-004-300900-
WESTERN NEVADA

CITY           SKY/WX    TMP DP  RH WIND       PRES   REMARKS
RENO           MOCLDY    69  37  30 CALM      30.04S
CARSON CITY    FAIR      68  34  28 NE3       30.06F
MINDEN           N/A     63  41  45 E9        30.07
SLIDE MTN        N/A     52  28  40 W30         N/A
PYRAMID LAKE     N/A     75 N/A N/A SW10        N/A
FALLON         MOCLDY    66  31  27 NE3       29.99S
LOVELOCK       PTCLDY    70  37  29 W10       29.99R
HAWTHORNE      CLEAR     75  34  22 CALM      30.02R
$$

NVZ002-CAZ072-073-300900-
NORTHERN AND CENTRAL SIERRA

CITY           SKY/WX    TMP DP  RH WIND       PRES   REMARKS
TRUCKEE        MOCLDY    55  34  44 CALM      30.15F
SQUAW VLY 8000 NOT AVBL
SUSANVILLE     CLEAR     66  36  32 W9        30.03S
BLUE CANYON    MOCLDY    66  37  34 SE6       30.14S
MAMMOTH LAKES  FAIR      55  23  28 NE7       30.24R
BRIDGEPORT     FAIR      65  24  21 W6        30.19S
$$

NVZ030-031-036-300900-
NORTHERN NEVADA

CITY           SKY/WX    TMP DP  RH WIND       PRES   REMARKS
ELKO           CLEAR     59  36  42 CALM      30.00S
WINNEMUCCA     CLEAR     70  36  28 SW8       29.98R
WENDOVER       MOCLDY    79  34  19 NW14      29.92R
$$

NVZ035-037-300900-
CENTRAL NEVADA

CITY           SKY/WX    TMP DP  RH WIND       PRES   REMARKS
ELY            PTCLDY    55  34  45 S10       30.12R
EUREKA           N/A     63  28  26 S8        30.09S
$$

NVZ013-014-300900-
SOUTH CENTRAL NEVADA

CITY           SKY/WX    TMP DP  RH WIND       PRES   REMARKS
TONOPAH        PTCLDY    66  24  20 E3        30.08R
$$

NVZ017-020-022-300900-
SOUTHERN NEVADA

CITY           SKY/WX    TMP DP  RH WIND       PRES   REMARKS
LAS VEGAS      MOCLDY    88  28  11 S9        29.77S
N. LAS VEGAS   CLEAR     85  36  17 NW3       29.80S
NELLIS AFB     CLEAR     85  37  18 N3        29.79R
HENDERSON      CLEAR     82  32  16 S12       29.85S
MERCURY        PTCLDY    75  27  17 CALM      29.89S
$$



USA.gov is the U.S. government's official web portal to all federal, state and local government web resources and services.